QPF
0.01 0.02 0.02 0.02 0.02 0.03 0.03 0.04 0.05 0.06 0.08 0.08 0.09 0.09 0.08 0.07 0.05 0.04 0.04 0.05 0.05 0.06 0.05 0.06 0.06 0.07 0.08 0.08 0.10 0.09 0.08 0.09 0.09 0.10 0.11 0.09 0.09 0.11 0.10 0.09 0.09 0.08 0.08
0.03 0.04 0.04 0.03 0.03 0.04 0.05 0.05 0.06 0.06 0.06 0.07 0.06 0.06 0.05 0.05 0.05 0.05 0.05 0.06 0.06 0.05 0.06 0.07 0.06 0.07 0.09 0.11 0.12 0.10 0.08 0.08 0.08 0.10 0.11 0.11 0.12 0.12 0.11 0.11 0.10 0.08 0.08
0.06 0.06 0.04 0.03 0.03 0.04 0.04 0.05 0.06 0.06 0.05 0.04 0.04 0.04 0.05 0.05 0.06 0.06 0.06 0.07 0.07 0.06 0.07 0.07 0.05 0.06 0.07 0.08 0.09 0.09 0.09 0.10 0.09 0.08 0.07 0.07 0.08 0.08 0.09 0.09 0.10 0.10 0.08
0.05 0.05 0.04 0.03 0.04 0.05 0.06 0.07 0.08 0.08 0.07 0.06 0.06 0.06 0.06 0.06 0.07 0.06 0.06 0.07 0.07 0.06 0.06 0.05 0.04 0.04 0.05 0.07 0.06 0.07 0.08 0.08 0.09 0.09 0.08 0.07 0.08 0.08 0.09 0.10 0.12 0.11 0.10
0.03 0.03 0.03 0.04 0.05 0.05 0.05 0.06 0.06 0.07 0.06 0.06 0.07 0.06 0.06 0.06 0.06 0.06 0.06 0.05 0.07 0.07 0.05 0.04 0.03 0.03 0.05 0.04 0.04 0.06 0.06 0.06 0.06 0.06 0.05 0.05 0.07 0.09 0.08 0.08 0.10 0.13 0.13
0.04 0.04 0.03 0.03 0.05 0.06 0.04 0.05 0.06 0.07 0.07 0.07 0.09 0.08 0.07 0.05 0.05 0.04 0.04 0.04 0.06 0.07 0.05 0.04 0.02 0.02 0.02 0.02 0.03 0.03 0.04 0.04 0.04 0.05 0.05 0.05 0.06 0.08 0.09 0.10 0.13 0.13 0.11
0.03 0.04 0.04 0.03 0.03 0.04 0.03 0.03 0.05 0.07 0.09 0.08 0.07 0.08 0.07 0.07 0.07 0.04 0.04 0.04 0.05 0.05 0.04 0.03 0.02 0.01 0.02 0.02 0.03 0.03 0.03 0.03 0.04 0.04 0.04 0.04 0.06 0.07 0.09 0.09 0.10 0.10 0.10
0.02 0.03 0.03 0.03 0.03 0.03 0.02 0.03 0.04 0.06 0.07 0.07 0.05 0.05 0.06 0.06 0.05 0.04 0.03 0.04 0.05 0.04 0.03 0.03 0.02 0.02 0.02 0.03 0.03 0.04 0.04 0.03 0.04 0.03 0.04 0.05 0.05 0.07 0.08 0.09 0.10 0.09 0.09
0.02 0.02 0.02 0.02 0.02 0.03 0.03 0.02 0.02 0.03 0.03 0.03 0.03 0.05 0.07 0.05 0.04 0.03 0.03 0.05 0.05 0.04 0.03 0.03 0.03 0.02 0.03 0.03 0.03 0.04 0.04 0.03 0.03 0.03 0.04 0.05 0.06 0.06 0.06 0.07 0.07 0.08 0.08
0.03 0.03 0.03 0.02 0.02 0.03 0.04 0.03 0.03 0.02 0.02 0.01 0.03 0.04 0.03 0.02 0.02 0.03 0.04 0.05 0.05 0.05 0.03 0.02 0.02 0.02 0.02 0.02 0.03 0.04 0.04 0.04 0.03 0.03 0.04 0.04 0.05 0.05 0.05 0.05 0.06 0.08 0.08
0.04 0.03 0.03 0.03 0.03 0.02 0.03 0.02 0.02 0.02 0.02 0.02 0.02 0.02 0.02 0.01 0.01 0.02 0.03 0.04 0.04 0.04 0.04 0.03 0.03 0.03 0.03 0.03 0.04 0.04 0.04 0.04 0.05 0.06 0.06 0.05 0.05 0.04 0.04 0.04 0.04 0.06 0.07
0.03 0.03 0.02 0.02 0.02 0.02 0.02 0.02 0.02 0.02 0.02 0.02 0.02 0.01 0.01 0.01 0.01 0.01 0.02 0.02 0.02 0.02 0.03 0.02 0.02 0.02 0.02 0.03 0.04 0.05 0.07 0.06 0.07 0.08 0.07 0.07 0.06 0.04 0.04 0.04 0.04 0.04 0.05
0.03 0.02 0.01 0.01 0.02 0.02 0.02 0.01 0.02 0.02 0.02 0.02 0.02 0.02 0.01 0.01 0.01 0.02 0.01 0.01 0.01 0.01 0.01 0.01 0.01 0.01 0.02 0.04 0.05 0.05 0.05 0.06 0.08 0.08 0.08 0.07 0.06 0.05 0.03 0.03 0.03 0.03 0.03
0.02 0.01 0.01 0.01 0.02 0.02 0.02 0.02 0.02 0.01 0.01 0.02 0.02 0.02 0.02 0.02 0.01 0.01 0.01 0.01 0.01 0.01 0.01 0.01 0.01 0.01 0.01 0.02 0.03 0.04 0.04 0.04 0.04 0.05 0.05 0.04 0.03 0.03 0.02 0.02 0.03 0.04 0.04
0.03 0.02 0.02 0.01 0.02 0.03 0.03 0.02 0.01 0.01 0.01 0.01 0.02 0.02 0.01 0.02 0.02 0.02 0.02 0.01 0.01 0.02 0.01 0.01 0.01 0.01 0.01 0.01 0.01 0.02 0.02 0.02 0.02 0.02 0.02 0.01 0.01 0.01 0.01 0.02 0.02 0.02 0.02
0.03 0.02 0.02 0.02 0.03 0.03 0.03 0.03 0.03 0.02 0.03 0.03 0.04 0.05 0.05 0.05 0.05 0.04 0.04 0.04 0.03 0.03 0.02 0.01 0.01 0.01 0.01 0.01 0.00 0.00 0.00 0.00 0.01 0.00 0.00 0.00 0.00 0.01 0.01 0.01 0.01 0.01 0.01
0.03 0.02 0.03 0.04 0.04 0.04 0.04 0.03 0.03 0.03 0.04 0.06 0.07 0.08 0.07 0.05 0.06 0.06 0.05 0.05 0.05 0.05 0.03 0.03 0.03 0.03 0.02 0.01 0.01 0.01 0.01 0.00 0.00 0.00 0.00 0.00 0.00 0.01 0.01 0.01 0.01 0.01 0.01
0.04 0.03 0.04 0.06 0.05 0.03 0.03 0.03 0.02 0.03 0.05 0.07 0.06 0.06 0.05 0.04 0.04 0.03 0.03 0.04 0.04 0.04 0.05 0.06 0.07 0.06 0.05 0.03 0.02 0.02 0.01 0.01 0.01 0.01 0.00 0.00 0.00 0.01 0.01 0.01 0.01 0.01 0.01
0.06 0.04 0.03 0.03 0.03 0.02 0.02 0.01 0.01 0.03 0.05 0.06 0.05 0.04 0.05 0.04 0.04 0.04 0.04 0.03 0.03 0.03 0.03 0.03 0.04 0.03 0.03 0.03 0.03 0.02 0.02 0.02 0.02 0.02 0.02 0.02 0.02 0.02 0.02 0.01 0.02 0.01 0.01
0.07 0.05 0.03 0.02 0.01 0.01 0.01 0.01 0.02 0.02 0.02 0.03 0.04 0.04 0.05 0.05 0.05 0.05 0.05 0.04 0.04 0.04 0.03 0.03 0.03 0.02 0.02 0.02 0.02 0.02 0.01 0.02 0.02 0.02 0.03 0.03 0.04 0.04 0.04 0.03 0.03 0.03 0.02
0.06 0.04 0.02 0.03 0.03 0.02 0.02 0.02 0.02 0.02 0.02 0.02 0.02 0.03 0.03 0.03 0.04 0.04 0.04 0.04 0.03 0.03 0.03 0.03 0.03 0.02 0.02 0.02 0.01 0.01 0.01 0.01 0.01 0.02 0.02 0.03 0.04 0.05 0.04 0.04 0.04 0.03 0.03
0.03 0.02 0.02 0.02 0.03 0.03 0.04 0.03 0.03 0.03 0.03 0.03 0.03 0.04 0.04 0.02 0.02 0.03 0.02 0.02 0.02 0.02 0.03 0.03 0.03 0.02 0.01 0.01 0.01 0.01 0.01 0.01 0.01 0.01 0.01 0.02 0.03 0.04 0.04 0.04 0.04 0.04 0.03
0.02 0.02 0.02 0.02 0.02 0.02 0.02 0.02 0.03 0.03 0.02 0.03 0.04 0.04 0.03 0.02 0.02 0.03 0.03 0.03 0.03 0.03 0.03 0.02 0.02 0.01 0.01 0.01 0.01 0.01 0.02 0.01 0.01 0.01 0.01 0.02 0.04 0.04 0.04 0.04 0.03 0.03 0.02
0.01 0.01 0.01 0.01 0.01 0.01 0.01 0.02 0.02 0.02 0.02 0.02 0.02 0.02 0.02 0.02 0.02 0.02 0.02 0.02 0.02 0.02 0.02 0.02 0.01 0.01 0.01 0.01 0.01 0.01 0.01 0.02 0.02 0.02 0.02 0.03 0.03 0.04 0.03 0.03 0.03 0.02 0.02
0.01 0.01 0.01 0.01 0.02 0.02 0.02 0.02 0.02 0.02 0.02 0.02 0.02 0.02 0.02 0.02 0.02 0.02 0.02 0.02 0.02 0.03 0.03 0.02 0.02 0.01 0.01 0.01 0.00 0.00 0.01 0.01 0.01 0.01 0.02 0.02 0.02 0.03 0.02 0.02 0.02 0.03 0.02
0.01 0.01 0.01 0.01 0.02 0.02 0.02 0.03 0.05 0.05 0.04 0.03 0.03 0.02 0.02 0.02 0.02 0.03 0.04 0.04 0.04 0.04 0.04 0.03 0.02 0.01 0.01 0.00 0.00 0.00 0.00 0.00 0.00 0.01 0.01 0.02 0.02 0.02 0.02 0.02 0.02 0.02 0.01
MSLP
1023.82 1023.83 1023.89 1023.99 1024.09 1024.18 1024.22 1024.22 1024.15 1024.04 1023.89 1023.73 1023.57 1023.44 1023.31 1023.21 1023.10 1022.97 1022.82 1022.63 1022.39 1022.13 1021.86 1021.61 1021.41 1021.27 1021.23 1021.28 1021.42 1021.63 1021.88 1022.16 1022.41 1022.62 1022.77 1022.83 1022.82 1022.73 1022.59 1022.41 1022.21 1022.01 1021.82
1024.41 1024.45 1024.53 1024.65 1024.77 1024.88 1024.94 1024.95 1024.90 1024.80 1024.67 1024.52 1024.37 1024.24 1024.13 1024.05 1023.97 1023.89 1023.78 1023.64 1023.46 1023.23 1022.98 1022.72 1022.48 1022.28 1022.14 1022.08 1022.09 1022.17 1022.30 1022.45 1022.61 1022.75 1022.84 1022.87 1022.84 1022.75 1022.61 1022.43 1022.24 1022.04 1021.87
1024.98 1025.05 1025.17 1025.32 1025.47 1025.60 1025.69 1025.73 1025.70 1025.62 1025.50 1025.36 1025.22 1025.10 1025.00 1024.92 1024.85 1024.79 1024.72 1024.61 1024.46 1024.28 1024.05 1023.80 1023.55 1023.32 1023.12 1022.98 1022.90 1022.88 1022.91 1022.98 1023.05 1023.12 1023.15 1023.14 1023.07 1022.94 1022.77 1022.56 1022.34 1022.11 1021.91
1025.52 1025.65 1025.81 1025.99 1026.17 1026.33 1026.44 1026.51 1026.51 1026.46 1026.37 1026.24 1026.11 1025.99 1025.89 1025.81 1025.75 1025.69 1025.63 1025.54 1025.43 1025.27 1025.08 1024.85 1024.62 1024.38 1024.17 1024.00 1023.87 1023.79 1023.75 1023.75 1023.76 1023.76 1023.74 1023.67 1023.54 1023.37 1023.14 1022.87 1022.58 1022.29 1022.02
1026.06 1026.23 1026.42 1026.63 1026.84 1027.02 1027.16 1027.26 1027.29 1027.28 1027.21 1027.11 1027.00 1026.88 1026.78 1026.69 1026.62 1026.56 1026.50 1026.42 1026.33 1026.21 1026.05 1025.87 1025.67 1025.46 1025.27 1025.09 1024.95 1024.85 1024.77 1024.72 1024.67 1024.61 1024.53 1024.40 1024.22 1023.98 1023.68 1023.35 1022.98 1022.61 1022.25
1026.58 1026.79 1027.01 1027.23 1027.45 1027.65 1027.82 1027.94 1028.01 1028.02 1027.99 1027.92 1027.82 1027.72 1027.61 1027.51 1027.43 1027.36 1027.30 1027.23 1027.16 1027.07 1026.96 1026.82 1026.68 1026.52 1026.36 1026.21 1026.07 1025.95 1025.85 1025.76 1025.66 1025.56 1025.41 1025.23 1024.99 1024.69 1024.34 1023.94 1023.50 1023.05 1022.61
1027.09 1027.32 1027.55 1027.78 1028.00 1028.20 1028.38 1028.52 1028.62 1028.67 1028.67 1028.62 1028.55 1028.45 1028.34 1028.24 1028.15 1028.07 1028.00 1027.94 1027.89 1027.83 1027.76 1027.68 1027.59 1027.48 1027.37 1027.25 1027.12 1027.00 1026.88 1026.75 1026.61 1026.45 1026.25 1026.02 1025.73 1025.39 1025.00 1024.56 1024.08 1023.58 1023.08
1027.56 1027.79 1028.02 1028.24 1028.46 1028.66 1028.84 1028.99 1029.11 1029.18 1029.20 1029.19 1029.13 1029.05 1028.95 1028.84 1028.74 1028.66 1028.59 1028.55 1028.51 1028.48 1028.46 1028.42 1028.38 1028.31 1028.24 1028.14 1028.02 1027.88 1027.73 1027.56 1027.38 1027.16 1026.92 1026.65 1026.33 1025.97 1025.57 1025.12 1024.64 1024.13 1023.60
1027.97 1028.20 1028.42 1028.63 1028.83 1029.02 1029.20 1029.35 1029.48 1029.57 1029.61 1029.62 1029.59 1029.52 1029.43 1029.34 1029.24 1029.16 1029.10 1029.06 1029.04 1029.04 1029.04 1029.04 1029.03 1028.99 1028.93 1028.84 1028.71 1028.55 1028.36 1028.15 1027.91 1027.65 1027.37 1027.07 1026.74 1026.38 1025.99 1025.57 1025.12 1024.63 1024.12
1028.30 1028.53 1028.74 1028.94 1029.12 1029.30 1029.47 1029.62 1029.75 1029.85 1029.92 1029.95 1029.94 1029.89 1029.83 1029.75 1029.67 1029.60 1029.55 1029.52 1029.52 1029.53 1029.55 1029.56 1029.56 1029.53 1029.46 1029.35 1029.20 1029.00 1028.77 1028.51 1028.22 1027.92 1027.61 1027.29 1026.96 1026.62 1026.26 1025.88 1025.48 1025.05 1024.59
1028.53 1028.77 1028.97 1029.16 1029.33 1029.50 1029.66 1029.82 1029.95 1030.07 1030.15 1030.21 1030.23 1030.22 1030.18 1030.13 1030.08 1030.03 1030.00 1029.98 1029.98 1029.99 1030.01 1030.01 1029.99 1029.94 1029.85 1029.70 1029.51 1029.27 1029.00 1028.69 1028.36 1028.03 1027.69 1027.36 1027.04 1026.72 1026.40 1026.08 1025.73 1025.36 1024.96
1028.67 1028.91 1029.12 1029.31 1029.48 1029.64 1029.80 1029.95 1030.09 1030.23 1030.34 1030.42 1030.48 1030.51 1030.52 1030.51 1030.50 1030.48 1030.46 1030.46 1030.45 1030.45 1030.44 1030.41 1030.35 1030.26 1030.12 1029.93 1029.69 1029.41 1029.10 1028.76 1028.40 1028.04 1027.70 1027.37 1027.05 1026.75 1026.47 1026.18 1025.88 1025.56 1025.20
1028.72 1028.98 1029.20 1029.39 1029.56 1029.72 1029.87 1030.03 1030.18 1030.33 1030.47 1030.59 1030.70 1030.78 1030.85 1030.89 1030.92 1030.94 1030.95 1030.94 1030.93 1030.89 1030.84 1030.76 1030.64 1030.49 1030.29 1030.05 1029.77 1029.46 1029.12 1028.76 1028.40 1028.04 1027.69 1027.37 1027.06 1026.77 1026.49 1026.22 1025.94 1025.64 1025.31
1028.69 1028.97 1029.20 1029.40 1029.56 1029.72 1029.87 1030.03 1030.19 1030.36 1030.53 1030.70 1030.86 1031.01 1031.14 1031.24 1031.32 1031.38 1031.40 1031.39 1031.35 1031.28 1031.17 1031.02 1030.84 1030.62 1030.36 1030.07 1029.76 1029.43 1029.08 1028.73 1028.38 1028.04 1027.71 1027.39 1027.09 1026.79 1026.51 1026.23 1025.93 1025.62 1025.29
1028.62 1028.92 1029.15 1029.34 1029.50 1029.64 1029.79 1029.94 1030.11 1030.29 1030.49 1030.71 1030.93 1031.14 1031.33 1031.50 1031.63 1031.72 1031.76 1031.74 1031.67 1031.54 1031.37 1031.15 1030.89 1030.60 1030.29 1029.97 1029.64 1029.31 1028.99 1028.67 1028.35 1028.04 1027.74 1027.44 1027.13 1026.83 1026.51 1026.19 1025.86 1025.52 1025.15
1028.53 1028.82 1029.04 1029.22 1029.36 1029.47 1029.59 1029.73 1029.89 1030.08 1030.31 1030.57 1030.83 1031.11 1031.36 1031.59 1031.76 1031.88 1031.93 1031.90 1031.79 1031.61 1031.37 1031.08 1030.76 1030.42 1030.07 1029.73 1029.41 1029.10 1028.81 1028.54 1028.28 1028.02 1027.75 1027.46 1027.16 1026.83 1026.48 1026.11 1025.73 1025.32 1024.91
1028.42 1028.69 1028.89 1029.03 1029.12 1029.20 1029.29 1029.39 1029.54 1029.73 1029.97 1030.25 1030.56 1030.88 1031.18 1031.45 1031.67 1031.81 1031.86 1031.81 1031.67 1031.45 1031.16 1030.81 1030.44 1030.06 1029.69 1029.35 1029.05 1028.78 1028.54 1028.33 1028.13 1027.92 1027.69 1027.42 1027.12 1026.77 1026.38 1025.96 1025.52 1025.06 1024.59
1028.28 1028.52 1028.68 1028.76 1028.81 1028.84 1028.88 1028.95 1029.07 1029.25 1029.48 1029.78 1030.11 1030.46 1030.79 1031.09 1031.33 1031.48 1031.53 1031.48 1031.31 1031.06 1030.73 1030.35 1029.95 1029.55 1029.18 1028.86 1028.58 1028.36 1028.18 1028.03 1027.88 1027.72 1027.53 1027.28 1026.97 1026.60 1026.18 1025.71 1025.22 1024.71 1024.20
1028.10 1028.29 1028.40 1028.43 1028.42 1028.40 1028.39 1028.42 1028.51 1028.66 1028.89 1029.18 1029.52 1029.87 1030.22 1030.53 1030.78 1030.94 1030.99 1030.92 1030.75 1030.48 1030.13 1029.74 1029.34 1028.95 1028.60 1028.30 1028.07 1027.89 1027.76 1027.66 1027.55 1027.43 1027.25 1027.01 1026.70 1026.31 1025.85 1025.35 1024.82 1024.28 1023.75
1027.84 1027.99 1028.05 1028.03 1027.98 1027.91 1027.86 1027.86 1027.91 1028.04 1028.25 1028.52 1028.84 1029.19 1029.53 1029.84 1030.08 1030.23 1030.27 1030.21 1030.03 1029.77 1029.43 1029.06 1028.68 1028.31 1027.99 1027.74 1027.54 1027.40 1027.31 1027.23 1027.15 1027.03 1026.86 1026.61 1026.28 1025.87 1025.39 1024.87 1024.32 1023.77 1023.24
1027.50 1027.60 1027.63 1027.58 1027.50 1027.41 1027.33 1027.31 1027.34 1027.44 1027.62 1027.87 1028.16 1028.48 1028.79 1029.07 1029.29 1029.43 1029.47 1029.40 1029.24 1029.00 1028.69 1028.35 1028.01 1027.69 1027.41 1027.20 1027.03 1026.92 1026.85 1026.78 1026.69 1026.56 1026.37 1026.09 1025.73 1025.30 1024.80 1024.26 1023.70 1023.15 1022.64
1027.06 1027.14 1027.15 1027.09 1027.01 1026.91 1026.84 1026.80 1026.82 1026.91 1027.06 1027.27 1027.52 1027.80 1028.06 1028.30 1028.49 1028.60 1028.63 1028.57 1028.42 1028.21 1027.94 1027.65 1027.36 1027.09 1026.86 1026.68 1026.55 1026.45 1026.37 1026.29 1026.18 1026.01 1025.78 1025.47 1025.07 1024.61 1024.09 1023.54 1022.98 1022.45 1021.96
1026.55 1026.62 1026.63 1026.59 1026.52 1026.44 1026.39 1026.36 1026.38 1026.45 1026.58 1026.74 1026.95 1027.16 1027.38 1027.56 1027.70 1027.77 1027.78 1027.72 1027.59 1027.40 1027.18 1026.94 1026.70 1026.49 1026.30 1026.15 1026.03 1025.94 1025.84 1025.73 1025.59 1025.38 1025.10 1024.74 1024.31 1023.81 1023.28 1022.72 1022.17 1021.66 1021.19
1025.99 1026.07 1026.10 1026.09 1026.05 1026.01 1025.98 1025.97 1026.00 1026.06 1026.15 1026.28 1026.42 1026.58 1026.72 1026.83 1026.91 1026.94 1026.92 1026.84 1026.72 1026.55 1026.36 1026.17 1025.98 1025.80 1025.65 1025.53 1025.42 1025.33 1025.22 1025.08 1024.90 1024.65 1024.33 1023.94 1023.47 1022.96 1022.41 1021.86 1021.32 1020.82 1020.38
1025.45 1025.54 1025.59 1025.61 1025.61 1025.60 1025.60 1025.61 1025.64 1025.69 1025.75 1025.83 1025.91 1025.99 1026.05 1026.10 1026.11 1026.08 1026.01 1025.91 1025.77 1025.61 1025.44 1025.28 1025.12 1024.97 1024.85 1024.75 1024.66 1024.56 1024.45 1024.30 1024.09 1023.82 1023.49 1023.07 1022.60 1022.08 1021.53 1020.99 1020.46 1019.98 1019.57
1024.93 1025.03 1025.10 1025.14 1025.18 1025.20 1025.22 1025.24 1025.26 1025.29 1025.32 1025.34 1025.36 1025.37 1025.35 1025.32 1025.25 1025.16 1025.04 1024.90 1024.73 1024.56 1024.39 1024.23 1024.09 1023.96 1023.86 1023.78 1023.70 1023.62 1023.51 1023.37 1023.18 1022.92 1022.59 1022.19 1021.73 1021.23 1020.71 1020.18 1019.67 1019.21 1018.80
Thickness
5783 5780 5778 5775 5772 5769 5766 5764 5762 5759 5757 5755 5753 5752 5750 5747 5746 5744 5743 5741 5739 5738 5737 5736 5734 5734 5734 5734 5733 5731 5728 5726 5720 5720 5721 5721 5719 5718 5717 5716 5714 5711 5709
5782 5779 5776 5773 5770 5768 5765 5763 5760 5757 5755 5753 5751 5748 5746 5745 5743 5742 5740 5739 5737 5735 5734 5733 5731 5731 5729 5729 5728 5727 5725 5723 5719 5715 5716 5715 5714 5713 5712 5711 5711 5709 5706
5781 5777 5774 5770 5767 5765 5763 5760 5758 5754 5752 5750 5748 5745 5743 5741 5740 5739 5737 5736 5734 5733 5731 5729 5728 5727 5725 5725 5724 5723 5722 5721 5718 5715 5713 5712 5712 5711 5709 5708 5707 5703 5702
5778 5774 5770 5767 5764 5762 5760 5757 5754 5751 5748 5746 5744 5742 5740 5737 5736 5735 5733 5732 5730 5728 5727 5726 5724 5722 5721 5720 5720 5719 5718 5716 5714 5712 5711 5709 5707 5706 5704 5702 5699 5698 5696
5772 5768 5765 5763 5761 5759 5756 5753 5751 5747 5745 5742 5740 5738 5735 5733 5732 5730 5728 5727 5725 5723 5722 5721 5719 5717 5715 5715 5716 5714 5712 5711 5710 5708 5706 5704 5701 5698 5697 5697 5694 5692 5689
5767 5763 5761 5759 5756 5753 5751 5749 5746 5743 5740 5737 5735 5732 5730 5729 5725 5722 5722 5721 5720 5718 5716 5715 5714 5713 5710 5707 5706 5705 5704 5703 5703 5701 5699 5695 5692 5691 5690 5690 5687 5684 5680
5761 5758 5756 5754 5751 5748 5746 5744 5741 5739 5735 5731 5729 5727 5724 5720 5717 5715 5714 5715 5714 5712 5710 5709 5710 5709 5706 5704 5701 5698 5696 5694 5692 5692 5689 5686 5685 5684 5682 5682 5678 5676 5673
5756 5753 5751 5749 5746 5744 5742 5739 5736 5734 5731 5727 5724 5721 5718 5714 5711 5709 5708 5709 5708 5705 5703 5702 5701 5699 5698 5696 5695 5694 5691 5688 5685 5683 5681 5679 5677 5675 5674 5674 5671 5669 5667
5751 5747 5746 5744 5741 5739 5736 5734 5732 5729 5726 5723 5720 5716 5713 5708 5704 5703 5702 5704 5702 5699 5697 5694 5693 5691 5687 5686 5687 5685 5682 5679 5675 5672 5670 5668 5666 5665 5664 5666 5663 5662 5659
5744 5742 5741 5739 5736 5734 5731 5728 5726 5724 5721 5718 5714 5711 5707 5703 5698 5697 5696 5700 5697 5694 5690 5687 5682 5680 5677 5676 5678 5676 5673 5670 5669 5666 5662 5660 5658 5657 5654 5653 5653 5652 5650
5738 5736 5735 5733 5731 5728 5725 5723 5721 5719 5716 5712 5708 5705 5702 5698 5693 5690 5689 5692 5691 5687 5685 5680 5674 5669 5668 5667 5667 5666 5662 5661 5660 5658 5655 5653 5650 5647 5645 5643 5641 5640 5637
5732 5729 5727 5726 5725 5722 5719 5716 5714 5712 5709 5705 5701 5698 5696 5692 5687 5683 5681 5680 5680 5679 5675 5672 5666 5660 5659 5657 5657 5654 5652 5652 5652 5649 5646 5642 5639 5637 5634 5631 5628 5626 5623
5724 5722 5720 5718 5716 5715 5712 5709 5707 5705 5704 5701 5698 5693 5690 5686 5680 5675 5673 5671 5670 5669 5666 5659 5656 5653 5651 5650 5646 5644 5645 5644 5642 5639 5635 5631 5629 5625 5623 5621 5618 5615 5613
5716 5714 5712 5710 5708 5706 5704 5702 5700 5698 5697 5694 5691 5687 5684 5679 5675 5671 5668 5665 5661 5659 5656 5651 5648 5645 5644 5641 5639 5638 5637 5634 5632 5628 5625 5622 5619 5617 5614 5612 5609 5606 5603
5707 5705 5703 5701 5699 5694 5691 5689 5688 5684 5683 5683 5682 5679 5675 5670 5662 5659 5659 5658 5656 5652 5649 5647 5644 5641 5638 5635 5632 5629 5627 5624 5621 5618 5616 5613 5610 5607 5604 5601 5598 5596 5592
5699 5696 5695 5692 5689 5686 5682 5677 5670 5670 5668 5666 5665 5664 5660 5655 5651 5648 5646 5644 5642 5640 5641 5639 5635 5632 5629 5626 5623 5620 5616 5613 5610 5608 5605 5602 5599 5596 5594 5590 5587 5584 5581
5690 5688 5687 5684 5681 5678 5676 5672 5667 5659 5655 5653 5652 5650 5647 5643 5641 5638 5635 5633 5631 5631 5632 5629 5625 5621 5618 5616 5613 5610 5606 5603 5599 5598 5595 5592 5589 5586 5583 5579 5576 5572 5568
5681 5678 5677 5675 5673 5671 5669 5666 5663 5659 5653 5647 5641 5638 5636 5633 5631 5628 5626 5625 5624 5622 5622 5619 5615 5612 5609 5605 5603 5600 5596 5593 5591 5588 5584 5581 5578 5575 5571 5568 5564 5559 5556
5673 5671 5669 5668 5666 5663 5661 5658 5655 5651 5646 5641 5637 5630 5626 5624 5621 5619 5618 5620 5619 5615 5612 5609 5605 5602 5599 5595 5592 5588 5585 5583 5579 5577 5574 5569 5566 5563 5559 5556 5552 5545 5543
5663 5660 5660 5659 5657 5654 5652 5649 5645 5642 5638 5634 5630 5626 5622 5619 5617 5613 5610 5610 5608 5605 5602 5599 5595 5592 5588 5584 5580 5578 5575 5572 5568 5567 5563 5559 5556 5552 5549 5545 5542 5538 5534
5655 5652 5650 5650 5648 5646 5643 5640 5636 5633 5629 5625 5621 5616 5612 5614 5611 5607 5604 5601 5598 5596 5592 5589 5586 5581 5577 5572 5569 5567 5565 5562 5558 5555 5552 5548 5545 5541 5538 5534 5531 5528 5523
5646 5645 5643 5641 5639 5636 5634 5631 5628 5624 5621 5617 5612 5608 5602 5605 5603 5599 5596 5592 5589 5585 5581 5578 5575 5571 5566 5562 5559 5556 5554 5551 5547 5543 5540 5538 5534 5531 5528 5524 5520 5517 5513
5638 5637 5635 5632 5629 5624 5624 5622 5619 5616 5613 5610 5606 5602 5599 5597 5593 5589 5586 5582 5578 5574 5570 5567 5564 5560 5556 5552 5549 5545 5543 5539 5535 5532 5530 5527 5525 5521 5518 5514 5510 5506 5502
5631 5629 5627 5623 5620 5618 5616 5613 5610 5608 5605 5602 5599 5595 5592 5588 5584 5580 5576 5572 5568 5564 5560 5557 5553 5550 5546 5542 5539 5535 5530 5525 5521 5520 5518 5516 5514 5511 5508 5503 5500 5496 5492
5623 5621 5618 5616 5613 5611 5608 5605 5603 5600 5597 5594 5590 5587 5583 5580 5576 5572 5568 5564 5559 5555 5551 5547 5544 5541 5536 5532 5528 5523 5518 5513 5510 5507 5505 5505 5503 5499 5496 5493 5490 5486 5483
5614 5612 5610 5608 5605 5603 5600 5597 5594 5591 5588 5585 5581 5578 5575 5571 5568 5564 5560 5555 5552 5547 5543 5539 5535 5531 5527 5523 5517 5512 5507 5503 5500 5496 5494 5494 5493 5490 5486 5484 5480 5478 5475